Location: Newark
(44.3248°N, 23.7839°E)
Time: 05:45:02
(UTC+00:00)

FO-29 - Pass Details

Date: 03 May 2024
Orbit: 801 x 1320 km, 98.6° (Epoch: 28 May)

Event Time Altitude Azimuth Distance (km) Brightness Sun altitude
Rises 22:14:09 0° 30° (NNE) 4,321 13.7 -29.6°
Reaches altitude 10° 22:18:54 10° 55° (NE) 3,355 12.7 -29.6°
Maximum altitude 22:22:24 13° 82° (E) 3,078 12.1 -29.6°
Enters shadow 22:25:42 10° 108° (ESE) 3,283 12.1 -29.6°
